When you browse on this site, cookies collect data to enhance your experience and personalize the content and advertising you see.
Visit our Privacy Policy to learn more. By continuing to use the site, you agree to this use of cookies and data.
  • In Spain
  • List of Countries
  • For 7 days
  • Water Temperature
  • Weather Map
  • Weather Widgets
  • user-avatar
    Login

    Hourly Weather Vysokiy Holm

    Today, 2 June, Tuesday

    Time Temperature Precipitation Wind Pressure Humidity
    00:00 +8°C° 0.9 mm 7 mps 741 mmHg 93%
    01:00 +6°C° 0.9 mm 8 mps 741 mmHg 93%
    02:00 +6°C° 0 mm 8 mps 740 mmHg 91%
    03:00 +6°C° 0.5 mm 8 mps 740 mmHg 92%
    04:00 +6°C° 0.5 mm 8 mps 740 mmHg 92%
    05:00 +5°C° 0.5 mm 7 mps 740 mmHg 93%
    06:00 +5°C° 1.4 mm 8 mps 740 mmHg 93%
    07:00 +6°C° 1.4 mm 8 mps 740 mmHg 94%
    08:00 +6°C° 0 mm 8 mps 740 mmHg 96%
    09:00 +6°C° 0.3 mm 8 mps 740 mmHg 94%
    10:00 +7°C° 0.3 mm 8 mps 740 mmHg 93%
    11:00 +8°C° 0.3 mm 7 mps 740 mmHg 92%
    12:00 +7°C° 0 mm 8 mps 740 mmHg 91%
    13:00 +9°C° 0 mm 8 mps 740 mmHg 90%
    14:00 +9°C° 0 mm 8 mps 740 mmHg 89%
    15:00 +9°C° 0.2 mm 7 mps 740 mmHg 88%
    16:00 +10°C° 0.2 mm 7 mps 740 mmHg 88%
    17:00 +10°C° 0.2 mm 6 mps 740 mmHg 87%
    18:00 +9°C° 0.5 mm 6 mps 740 mmHg 89%
    19:00 +9°C° 0.5 mm 6 mps 740 mmHg 92%
    20:00 +8°C° 0.5 mm 5 mps 740 mmHg 94%
    21:00 +8°C° 0.2 mm 5 mps 740 mmHg 95%
    22:00 +8°C° 0.2 mm 4 mps 740 mmHg 95%
    23:00 +8°C° 0.2 mm 4 mps 740 mmHg 96%

    Tomorrow, 3 June, Wednesday

    Time Temperature Precipitation Wind Pressure Humidity
    00:00 +9°C° 0.2 mm 3 mps 740 mmHg 96%
    01:00 +9°C° 0.2 mm 3 mps 740 mmHg 97%
    02:00 +9°C° 0.2 mm 3 mps 740 mmHg 97%
    03:00 +9°C° 0 mm 2 mps 740 mmHg 97%
    04:00 +9°C° 0 mm 2 mps 739 mmHg 97%
    05:00 +9°C° 0 mm 2 mps 739 mmHg 98%
    06:00 +10°C° 0 mm 2 mps 739 mmHg 95%
    07:00 +12°C° 0 mm 2 mps 739 mmHg 92%
    08:00 +13°C° 0 mm 2 mps 740 mmHg 89%
    09:00 +14°C° 0 mm 1 mps 740 mmHg 82%
    10:00 +15°C° 0 mm 1 mps 739 mmHg 76%
    11:00 +18°C° 0 mm 1 mps 739 mmHg 69%
    12:00 +18°C° 0.1 mm 1 mps 739 mmHg 65%
    13:00 +19°C° 0.1 mm 1 mps 739 mmHg 60%
    14:00 +20°C° 0.1 mm 1 mps 739 mmHg 56%
    15:00 +20°C° 0 mm 1 mps 738 mmHg 58%
    16:00 +19°C° 0 mm 1 mps 738 mmHg 60%
    17:00 +19°C° 0 mm 1 mps 738 mmHg 61%
    18:00 +16°C° 0 mm 1 mps 738 mmHg 69%
    19:00 +15°C° 0 mm 1 mps 738 mmHg 76%
    20:00 +13°C° 0 mm 1 mps 737 mmHg 84%
    21:00 +12°C° 0 mm 1 mps 737 mmHg 85%
    22:00 +10°C° 0 mm 0 mps 737 mmHg 87%
    23:00 +9°C° 0 mm 0 mps 737 mmHg 88%

    Day after tomorrow, 4 June, Thursday

    Time Temperature Precipitation Wind Pressure Humidity
    00:00 +10°C° 0 mm 1 mps 737 mmHg 89%
    01:00 +9°C° 0 mm 1 mps 737 mmHg 90%
    02:00 +9°C° 0 mm 1 mps 736 mmHg 91%
    03:00 +9°C° 0 mm 1 mps 736 mmHg 91%
    04:00 +10°C° 0 mm 1 mps 736 mmHg 91%
    05:00 +9°C° 0 mm 2 mps 736 mmHg 91%
    06:00 +12°C° 0 mm 2 mps 736 mmHg 87%
    07:00 +12°C° 0 mm 3 mps 736 mmHg 84%
    08:00 +14°C° 0 mm 3 mps 737 mmHg 80%
    09:00 +15°C° 0.3 mm 4 mps 737 mmHg 78%
    10:00 +15°C° 0.3 mm 4 mps 736 mmHg 77%
    11:00 +16°C° 0.3 mm 5 mps 736 mmHg 75%
    12:00 +16°C° 0.7 mm 5 mps 736 mmHg 76%
    13:00 +17°C° 0.7 mm 4 mps 736 mmHg 76%
    14:00 +17°C° 0.7 mm 4 mps 736 mmHg 77%
    15:00 +17°C° 0.3 mm 4 mps 736 mmHg 77%
    16:00 +17°C° 0.3 mm 4 mps 736 mmHg 77%
    17:00 +17°C° 0.3 mm 4 mps 736 mmHg 78%
    18:00 +15°C° 0.2 mm 4 mps 736 mmHg 82%
    19:00 +13°C° 0.2 mm 3 mps 736 mmHg 86%
    20:00 +12°C° 0.2 mm 3 mps 736 mmHg 91%
    21:00 +11°C° 0 mm 3 mps 736 mmHg 92%
    22:00 +11°C° 0 mm 3 mps 736 mmHg 93%
    23:00 +10°C° 0 mm 3 mps 736 mmHg 95%

    5 June, Friday

    Time Temperature Precipitation Wind Pressure Humidity
    00:00 +10°C° 0 mm 3 mps 737 mmHg 95%
    01:00 +9°C° 0 mm 3 mps 737 mmHg 96%
    02:00 +9°C° 0 mm 3 mps 737 mmHg 96%
    03:00 +9°C° 0 mm 3 mps 737 mmHg 96%
    04:00 +9°C° 0 mm 3 mps 737 mmHg 96%
    05:00 +10°C° 0 mm 3 mps 737 mmHg 96%
    06:00 +11°C° 0 mm 4 mps 737 mmHg 92%
    07:00 +13°C° 0 mm 4 mps 738 mmHg 88%
    08:00 +14°C° 0 mm 4 mps 738 mmHg 83%
    09:00 +15°C° 0.2 mm 4 mps 738 mmHg 78%
    10:00 +16°C° 0.2 mm 5 mps 738 mmHg 74%
    11:00 +17°C° 0.2 mm 5 mps 738 mmHg 69%
    12:00 +19°C° 0.1 mm 5 mps 738 mmHg 68%
    13:00 +19°C° 0.1 mm 5 mps 738 mmHg 67%
    14:00 +20°C° 0.1 mm 5 mps 737 mmHg 66%
    15:00 +20°C° 0.1 mm 4 mps 737 mmHg 69%
    16:00 +20°C° 0.1 mm 4 mps 737 mmHg 73%
    17:00 +19°C° 0.1 mm 4 mps 737 mmHg 76%
    18:00 +18°C° 0.1 mm 4 mps 737 mmHg 80%
    19:00 +17°C° 0.1 mm 4 mps 738 mmHg 85%
    20:00 +15°C° 0.1 mm 4 mps 738 mmHg 89%
    21:00 +15°C° 0 mm 4 mps 738 mmHg 91%
    22:00 +14°C° 0 mm 4 mps 738 mmHg 93%
    23:00 +14°C° 0 mm 4 mps 738 mmHg 94%

    6 June, Saturday

    Time Temperature Precipitation Wind Pressure Humidity
    00:00 +14°C° 0.2 mm 4 mps 738 mmHg 95%
    01:00 +14°C° 0.2 mm 4 mps 738 mmHg 96%
    02:00 +14°C° 0.2 mm 4 mps 738 mmHg 97%
    03:00 +14°C° 1.1 mm 4 mps 738 mmHg 97%
    04:00 +15°C° 1.1 mm 4 mps 738 mmHg 97%
    05:00 +15°C° 1.1 mm 5 mps 738 mmHg 97%
    06:00 +15°C° 0.1 mm 5 mps 738 mmHg 96%
    07:00 +16°C° 0.1 mm 5 mps 738 mmHg 95%
    08:00 +17°C° 0.1 mm 5 mps 738 mmHg 94%
    09:00 +19°C° 0.2 mm 5 mps 738 mmHg 90%
    10:00 +20°C° 0.2 mm 5 mps 739 mmHg 86%
    11:00 +22°C° 0.2 mm 6 mps 739 mmHg 82%
    12:00 +21°C° 1.2 mm 5 mps 739 mmHg 85%
    13:00 +20°C° 1.2 mm 5 mps 739 mmHg 88%
    14:00 +19°C° 1.2 mm 5 mps 740 mmHg 92%
    15:00 +19°C° 0.2 mm 4 mps 740 mmHg 90%
    16:00 +20°C° 0.2 mm 3 mps 741 mmHg 88%
    17:00 +20°C° 0.2 mm 3 mps 741 mmHg 86%
    18:00 +19°C° 0 mm 2 mps 741 mmHg 88%
    19:00 +18°C° 0 mm 2 mps 742 mmHg 91%
    20:00 +18°C° 0 mm 1 mps 742 mmHg 93%
    21:00 +16°C° 0 mm 1 mps 743 mmHg 93%
    22:00 +15°C° 0 mm 1 mps 743 mmHg 93%
    23:00 +14°C° 0 mm 1 mps 744 mmHg 93%

    7 June, Sunday

    Time Temperature Precipitation Wind Pressure Humidity
    00:00 +14°C° 0 mm 1 mps 744 mmHg 93%
    01:00 +13°C° 0 mm 1 mps 744 mmHg 93%
    02:00 +13°C° 0 mm 1 mps 744 mmHg 93%
    03:00 +13°C° 0 mm 1 mps 745 mmHg 93%
    04:00 +14°C° 0 mm 1 mps 745 mmHg 92%
    05:00 +14°C° 0 mm 1 mps 745 mmHg 92%
    06:00 +16°C° 0 mm 1 mps 745 mmHg 88%
    07:00 +17°C° 0 mm 2 mps 746 mmHg 84%
    08:00 +19°C° 0 mm 2 mps 746 mmHg 80%
    09:00 +21°C° 0 mm 1 mps 746 mmHg 76%
    10:00 +23°C° 0 mm 1 mps 746 mmHg 72%
    11:00 +24°C° 0 mm 1 mps 747 mmHg 68%
    12:00 +24°C° 0 mm 1 mps 746 mmHg 67%
    13:00 +25°C° 0 mm 1 mps 746 mmHg 65%
    14:00 +25°C° 0 mm 1 mps 746 mmHg 64%
    15:00 +25°C° 0.1 mm 1 mps 746 mmHg 67%
    16:00 +25°C° 0.1 mm 1 mps 746 mmHg 70%
    17:00 +25°C° 0.1 mm 1 mps 746 mmHg 73%
    18:00 +23°C° 0.5 mm 1 mps 745 mmHg 78%
    19:00 +22°C° 0.5 mm 1 mps 745 mmHg 83%
    20:00 +20°C° 0.5 mm 1 mps 745 mmHg 89%
    21:00 +20°C° 0.5 mm 1 mps 745 mmHg 90%
    22:00 +19°C° 0.5 mm 1 mps 745 mmHg 91%
    23:00 +19°C° 0.5 mm 1 mps 746 mmHg 93%
    Show more